Theta_e
313 313 312 311 310 309 307 306 305 303 302 301 301 300 300 299 299 299 299 299 298 298 298 298 298 298 298 297 297 297 297 296 296 296 296 295 295 294 294 293 292 291 288 288 290 290 290 290 291 293 293 294
312 311 310 309 308 307 306 304 302 301 300 299 299 298 298 297 298 297 297 297 297 297 297 298 297 297 297 297 296 296 295 295 295 295 295 294 294 293 293 292 291 290 286 285 288 288 288 289 290 291 292 293
309 308 308 307 306 305 303 302 300 299 298 297 296 296 295 295 296 296 296 296 296 296 296 296 296 296 296 296 295 295 295 294 293 293 293 293 293 292 292 291 290 288 284 283 285 286 286 287 289 290 291 292
307 306 305 304 303 302 300 298 297 296 295 294 292 292 291 292 293 293 294 294 294 294 294 295 295 295 295 295 294 294 294 293 293 292 291 291 290 290 289 289 287 285 283 282 282 283 284 285 287 288 289 290
304 303 302 301 300 298 297 295 295 294 292 290 289 287 287 287 288 289 291 292 292 292 293 293 293 294 294 294 294 293 293 292 292 290 289 287 287 287 286 286 285 283 282 281 281 281 282 283 285 286 287 288
304 303 301 300 299 297 296 295 295 294 292 289 287 286 285 285 285 286 288 290 290 291 291 291 291 292 292 292 292 292 292 291 290 289 286 285 284 284 284 284 283 283 282 281 280 280 281 282 283 284 285 286
304 302 300 299 298 297 296 294 293 293 290 288 287 285 285 284 284 285 286 287 288 289 289 289 289 289 289 290 290 290 290 289 288 286 284 283 283 283 283 283 282 282 282 281 280 279 279 280 281 283 284 284
303 300 299 298 297 296 294 293 292 291 290 287 286 285 285 285 284 284 285 285 286 287 287 287 287 286 287 287 287 287 287 286 285 284 283 282 282 282 282 282 282 281 281 280 280 279 279 279 279 281 282 283
301 298 297 296 295 295 293 292 291 290 289 287 285 285 285 285 284 284 284 284 284 284 284 285 284 284 284 284 284 284 284 283 283 283 282 282 282 282 282 282 281 281 280 280 280 279 279 279 279 280 280 282
300 297 296 295 294 294 292 291 290 290 288 287 285 285 284 285 284 284 283 283 282 282 282 282 282 282 282 282 282 282 283 282 282 282 282 282 282 281 281 281 280 280 280 280 280 279 279 279 279 279 280 280
298 296 296 295 294 293 291 290 290 289 288 287 285 284 284 284 283 283 283 282 282 282 282 282 282 282 282 282 282 282 282 282 282 282 282 282 281 281 281 280 280 280 280 280 280 280 280 280 280 280 280 280
297 295 295 295 293 292 290 289 289 289 288 287 285 283 283 283 283 283 283 282 282 282 282 282 282 282 282 282 282 282 282 282 282 282 282 281 281 280 280 280 280 280 280 280 280 280 280 280 280 280 280 281
296 295 295 295 293 291 290 289 289 288 288 287 284 283 282 282 283 283 283 283 283 282 282 282 282 282 282 282 282 281 282 282 282 282 281 281 280 280 280 280 279 279 279 279 280 280 280 280 281 281 281 281
296 295 296 295 293 291 290 289 288 288 287 286 284 283 282 282 283 283 283 283 283 282 283 282 282 282 282 282 281 281 282 281 281 281 280 280 280 280 280 280 279 279 279 279 280 280 281 281 281 281 281 281
295 295 297 296 292 291 290 289 288 287 286 285 284 283 282 282 283 283 284 284 283 283 283 282 282 282 282 281 281 281 281 281 281 281 280 280 280 280 280 279 279 279 280 280 280 280 281 281 281 281 281 281
295 295 296 295 292 290 290 289 287 287 286 285 283 283 282 282 283 283 284 284 283 283 283 282 282 282 281 281 281 281 281 281 281 280 280 280 279 279 279 279 279 279 280 280 280 280 281 281 281 281 281 281
295 295 296 295 291 290 289 288 287 286 285 284 283 283 282 282 283 283 284 284 283 283 282 282 282 282 281 281 281 281 281 281 280 280 280 280 279 279 280 280 279 279 280 280 280 280 280 281 281 281 281 281
294 296 296 293 291 289 289 287 286 286 285 284 283 283 282 282 283 283 283 283 283 283 282 282 282 281 281 281 280 281 281 281 280 280 280 280 280 280 280 280 280 280 280 280 280 280 280 281 281 281 281 281
293 296 297 293 290 288 288 287 285 285 284 283 283 282 282 282 283 283 283 283 283 283 282 282 282 281 281 280 280 281 281 281 280 280 280 280 280 280 280 280 280 280 280 280 280 280 280 280 281 281 281 281
291 295 295 291 289 287 286 285 285 285 284 283 283 282 282 283 283 283 283 282 282 282 282 282 282 281 281 281 280 281 281 281 280 280 280 280 280 281 280 280 280 280 280 280 280 280 280 280 280 280 280 280
290 292 293 290 288 286 285 284 284 284 283 283 282 282 282 283 283 283 283 282 282 282 282 282 282 282 281 281 281 281 280 280 280 280 281 280 280 281 281 281 281 281 280 280 280 280 280 280 280 280 280 280
288 290 290 287 286 285 284 283 283 283 283 282 282 282 282 283 283 283 283 282 281 282 282 282 282 282 281 281 280 281 280 280 280 280 281 281 280 281 281 281 281 281 281 280 280 280 280 280 280 280 279 280
287 288 287 285 284 283 282 282 282 282 282 282 282 282 282 282 282 283 282 282 281 281 282 282 282 282 282 281 280 280 280 280 280 280 281 281 281 281 281 281 281 281 281 280 280 280 281 281 280 280 280 279
285 285 285 283 282 281 281 281 281 281 281 281 281 281 282 282 282 282 282 281 281 281 282 282 282 282 282 281 280 281 281 281 281 281 281 281 281 281 281 281 281 281 281 280 280 280 281 281 280 280 280 279
286 286 285 283 282 281 280 280 280 280 280 281 281 281 281 282 282 282 282 281 281 281 282 282 282 282 282 281 280 281 281 281 281 281 281 281 281 280 280 280 280 281 281 280 280 281 280 280 280 280 280 280
287 290 291 287 283 282 281 280 280 280 280 280 280 280 281 281 281 281 281 281 280 281 282 282 282 282 282 281 280 280 281 281 281 281 281 281 281 280 280 280 280 281 281 281 281 280 280 281 281 280 280 280
288 290 292 289 285 282 281 280 280 280 280 279 279 279 280 280 280 281 281 280 280 281 282 282 283 282 282 281 280 281 281 281 281 281 281 281 281 280 280 280 280 281 281 281 281 281 282 282 282 282 281 280
288 288 287 287 285 282 281 280 279 279 279 278 278 278 279 279 279 280 280 280 280 280 281 282 283 283 282 281 280 281 281 282 281 281 281 280 281 281 281 281 280 281 281 281 281 282 283 280 281 285 282 278
286 286 285 283 281 280 279 278 277 277 277 277 277 278 278 278 278 279 279 280 279 280 281 282 283 283 282 281 281 280 281 282 282 282 281 281 281 282 283 283 281 280 280 281 281 281 283 282 284 286 280 277
286 286 286 284 282 280 278 277 277 277 278 278 277 277 278 278 278 278 279 279 279 280 281 282 283 283 283 282 281 281 281 282 282 282 282 282 282 282 283 283 283 280 280 281 280 280 282 282 283 283 279 279
286 286 287 288 287 283 281 279 278 278 279 279 277 277 277 277 277 277 278 279 279 279 280 282 282 282 282 282 282 281 281 282 282 282 282 282 282 283 282 283 283 281 280 280 279 279 279 279 280 280 279 279
Wind_Speed
19 18 18 18 17 17 16 16 15 15 15 15 15 15 15 16 15 15 15 15 16 16 15 15 15 16 16 16 17 17 17 17 18 19 19 20 20 20 21 21 21 23 23 23 23 23 23 27 29 29 31 31
19 19 19 18 17 16 16 16 16 15 16 16 17 16 16 16 16 16 17 17 17 16 16 16 17 16 16 16 16 16 17 17 18 18 19 20 20 21 21 21 22 23 23 24 24 22 22 27 29 29 30 30
19 19 18 18 17 17 17 16 16 16 16 15 15 15 15 16 17 17 17 18 17 17 16 16 17 17 17 16 17 17 17 17 18 18 19 20 21 21 21 22 23 23 22 23 24 23 24 27 28 29 30 29
20 18 18 18 18 18 17 17 16 14 13 12 12 11 12 13 15 17 18 19 18 17 16 16 16 16 17 17 17 17 17 17 17 18 19 20 20 20 22 23 23 22 21 23 24 24 24 25 26 28 29 29
22 20 19 19 19 19 19 17 15 13 12 11 10 10 11 11 13 15 18 20 20 19 17 17 17 16 17 17 17 17 17 17 18 19 19 18 18 20 22 23 23 22 21 22 24 25 24 24 25 27 28 28
22 21 21 21 20 20 19 16 14 12 10 10 10 11 11 12 13 15 18 20 21 21 20 17 17 17 17 17 17 17 17 18 19 19 18 17 17 19 20 21 22 22 22 22 23 24 23 24 24 25 26 27
21 21 21 20 19 18 17 15 13 11 10 10 11 12 12 13 15 17 18 20 21 22 21 19 18 18 19 19 19 19 19 19 19 18 18 18 18 19 20 21 22 22 22 22 22 22 22 22 22 23 24 26
21 21 20 19 18 17 16 15 13 12 11 11 11 12 12 12 14 16 18 18 19 19 19 20 20 19 19 20 19 19 19 19 18 18 19 19 20 20 21 22 22 22 22 21 21 21 21 21 21 21 22 23
22 22 21 20 18 17 16 15 14 12 11 11 11 12 12 12 13 15 17 17 16 16 17 17 18 18 18 18 18 17 18 19 19 19 20 20 21 21 22 22 22 21 21 21 20 21 21 21 20 21 20 21
23 22 21 20 19 17 17 15 14 13 12 11 11 12 12 13 14 15 17 16 16 16 17 17 17 18 18 18 18 18 19 21 21 21 21 21 22 22 22 22 21 21 21 21 21 21 21 21 21 21 21 20
23 23 21 20 19 18 17 16 14 13 12 12 12 12 13 14 15 17 17 17 17 17 17 17 18 18 18 18 19 19 20 21 22 22 22 22 22 21 21 21 20 20 20 20 21 21 20 21 21 21 21 20
24 23 22 21 20 18 18 16 15 14 13 12 12 13 14 15 16 17 18 18 18 17 17 17 18 18 18 18 19 19 20 22 22 23 22 22 21 20 20 20 19 19 19 19 20 20 20 20 20 20 20 19
25 24 22 21 20 20 19 17 16 14 13 12 13 14 15 16 17 18 18 18 18 17 17 17 18 18 18 19 19 20 20 21 23 23 23 23 21 20 20 19 19 19 19 19 19 19 20 20 19 19 19 19
26 24 23 22 21 21 19 18 17 15 14 13 14 16 17 17 17 17 17 17 17 17 17 18 18 18 19 19 19 20 21 22 22 23 22 22 21 20 20 19 18 18 19 18 18 18 19 19 19 18 18 18
26 25 23 22 21 21 20 19 18 16 15 14 15 17 18 18 17 17 17 17 17 17 17 18 18 19 19 20 20 20 21 22 22 22 22 21 21 20 20 19 18 18 18 18 17 17 18 18 18 18 17 17
26 25 23 22 22 21 20 19 18 17 16 16 17 18 19 19 18 17 17 17 17 17 18 18 19 19 19 20 20 20 21 22 21 21 21 20 20 19 20 19 18 17 17 18 17 17 17 17 17 17 17 16
27 25 23 22 22 22 21 20 19 18 17 17 18 19 19 19 19 18 17 17 17 17 18 19 19 19 20 20 21 21 22 22 21 21 21 20 19 19 19 19 18 17 17 17 17 16 17 17 17 17 16 16
28 25 23 23 23 22 21 21 20 18 18 18 19 20 20 20 19 18 17 17 17 18 18 19 20 20 21 21 21 22 22 22 21 20 20 20 19 19 19 20 19 18 18 18 17 16 16 17 17 17 16 16
29 26 24 24 24 23 22 21 20 19 19 19 20 21 21 20 19 18 18 17 17 18 19 19 20 20 21 21 22 22 22 21 21 20 20 19 19 20 20 20 19 18 19 18 17 16 15 15 15 15 15 15
29 27 25 25 24 23 23 22 21 20 20 20 21 21 21 21 20 19 18 18 18 18 19 20 20 21 21 21 22 22 22 21 20 20 20 19 19 20 20 19 19 18 18 17 16 14 13 12 11 11 11 12
30 28 26 26 25 23 23 22 22 21 21 21 22 22 22 21 20 19 19 19 18 19 19 20 20 21 21 21 22 22 22 21 20 20 20 20 19 19 20 19 19 18 16 15 13 12 10 8 8 8 8 9
30 29 27 26 25 24 23 23 22 22 22 22 23 23 22 21 21 20 19 20 19 19 20 20 20 21 21 21 22 22 22 21 21 19 19 20 19 18 18 19 18 16 14 12 10 8 7 6 6 5 6 7
31 29 28 27 25 24 24 24 23 23 23 23 24 24 23 22 21 20 20 20 21 20 21 21 20 21 22 22 22 22 22 22 21 20 18 18 19 18 17 17 16 14 11 9 7 5 4 3 2 2 4 6
34 32 30 28 27 26 26 25 24 24 24 24 24 24 24 23 22 21 21 21 22 21 21 21 21 21 22 22 22 22 22 22 21 20 19 18 18 18 17 15 14 11 9 7 5 4 2 1 0 1 2 5
38 36 33 31 30 30 28 27 26 26 25 25 25 25 24 24 23 22 22 23 23 22 22 21 21 22 23 23 22 22 22 22 21 19 18 18 18 16 15 13 11 10 8 7 5 4 3 2 2 2 2 4
40 38 36 34 33 32 30 29 28 28 27 26 26 26 25 24 24 23 23 24 24 23 22 22 22 23 24 24 23 23 22 22 21 20 18 18 18 16 13 11 10 10 9 7 7 6 3 1 1 3 4 4
40 37 34 33 32 32 30 28 28 28 27 27 27 26 25 25 24 24 25 25 25 24 23 23 23 24 24 24 24 23 23 22 21 20 19 18 17 15 13 9 8 11 10 8 8 6 2 1 1 2 4 4
39 36 32 30 30 30 28 27 27 26 26 27 27 27 26 26 25 25 26 26 26 25 24 24 24 25 25 25 24 24 23 23 22 21 19 17 15 15 14 10 7 8 11 11 9 5 2 1 2 1 3 4
39 36 32 29 28 28 25 24 26 27 28 28 28 29 28 27 27 26 27 27 27 26 25 25 25 25 26 26 25 24 23 23 22 21 19 17 16 15 14 12 9 8 9 11 11 7 3 2 0 2 3 4
40 38 36 34 33 32 30 30 32 33 34 33 32 31 30 29 28 27 28 28 28 28 27 26 26 26 26 26 26 25 24 22 21 20 19 18 17 15 12 12 13 12 10 9 9 8 6 3 2 3 3 0
42 40 39 39 39 38 37 37 35 34 34 34 33 32 31 31 30 29 29 29 29 29 28 28 27 27 27 26 26 25 24 23 22 21 20 19 17 15 13 12 13 14 13 11 10 8 7 6 6 5 4 3
Wind_Direction
129 128 126 129 133 134 130 124 120 116 112 108 105 103 102 101 98 98 98 98 98 97 97 100 100 98 99 99 99 98 96 94 92 90 89 89 87 87 85 84 82 78 78 79 82 82 84 96 97 92 90 85
134 135 135 135 136 134 128 124 122 117 112 108 106 104 105 105 101 101 101 101 99 99 100 101 101 101 100 100 100 98 98 97 95 93 93 92 89 88 87 85 83 80 81 84 84 79 84 98 98 94 92 87
142 138 138 135 132 131 127 125 122 119 114 111 111 110 111 110 106 104 102 102 101 102 103 102 102 102 102 103 102 101 99 98 96 96 96 94 91 88 86 84 82 83 86 88 90 88 94 102 100 97 93 88
142 132 131 131 128 127 127 129 131 134 135 133 132 131 127 125 122 117 111 108 106 104 104 104 102 101 103 103 102 101 98 98 97 97 97 97 96 94 93 90 87 89 91 91 95 98 103 106 103 99 94 88
145 137 137 134 131 133 138 145 151 156 154 152 149 146 142 141 139 133 127 122 117 112 109 106 106 105 104 104 103 101 100 100 97 96 99 104 108 109 110 108 103 100 96 95 96 99 103 105 103 99 94 89
154 153 152 148 148 150 156 160 162 161 154 153 150 147 144 143 143 140 136 131 126 121 116 109 106 107 106 106 104 102 100 98 97 98 104 112 116 116 116 116 113 109 104 100 97 97 98 100 100 98 95 90
162 161 160 159 161 160 163 165 166 161 153 154 151 149 148 147 146 145 142 139 136 131 126 120 118 117 116 117 114 112 109 104 105 108 113 117 118 117 115 114 112 110 106 102 99 95 93 92 94 96 94 90
163 163 163 163 164 163 164 166 167 164 158 157 155 156 155 154 152 150 149 147 147 144 142 138 137 137 135 134 131 130 127 122 121 121 121 119 119 117 116 115 111 110 106 103 100 96 93 90 91 92 91 89
166 166 166 165 166 166 166 169 168 164 165 164 163 163 162 161 156 154 151 149 149 147 147 145 143 141 140 139 136 135 132 127 125 123 122 120 119 117 116 115 111 110 108 105 103 99 96 93 91 89 87 85
170 170 170 169 169 169 167 169 168 165 168 167 168 169 168 164 157 154 151 149 148 144 146 144 141 139 138 138 133 133 131 126 125 124 122 121 119 116 116 113 110 109 107 106 104 101 99 95 92 88 84 81
172 173 173 172 171 172 169 170 170 168 170 169 169 169 169 166 159 156 152 151 149 147 149 146 143 142 140 139 135 135 134 131 128 126 124 122 119 116 114 111 108 107 105 105 104 102 100 96 92 88 84 80
174 175 175 174 174 174 172 173 174 172 172 171 169 167 170 168 162 159 155 154 152 152 154 151 148 146 145 143 138 138 138 135 131 129 127 123 120 117 114 110 107 105 104 103 102 101 99 96 92 88 85 80
177 177 178 177 177 176 175 177 177 176 177 175 171 168 170 170 166 162 159 157 156 157 156 154 152 150 149 145 142 141 138 136 134 130 127 124 121 118 115 111 108 106 103 102 100 99 98 95 92 88 86 82
179 180 181 180 181 179 177 180 180 179 180 177 173 171 171 172 170 165 163 160 158 160 159 155 155 153 151 147 145 145 140 138 136 132 128 126 123 120 116 111 109 107 104 100 98 97 96 94 91 88 86 84
181 181 183 183 183 180 179 183 182 181 182 178 174 174 172 172 172 168 166 164 161 163 161 158 157 154 153 150 148 148 144 141 138 134 131 128 125 122 117 113 110 108 105 101 97 96 94 92 91 88 86 84
182 183 185 185 184 181 182 184 183 183 183 179 176 176 175 174 173 171 170 167 165 166 163 161 159 156 155 152 150 151 148 145 142 138 134 131 128 124 120 116 113 109 105 101 98 96 94 92 90 87 84 80
183 184 186 187 185 183 183 184 185 184 183 181 178 177 177 176 175 174 174 171 169 169 167 164 161 159 157 154 153 153 152 149 146 143 139 136 133 129 125 120 116 112 107 102 99 96 93 92 89 85 82 77
184 185 188 188 187 185 184 185 184 184 183 182 180 179 179 179 177 176 176 174 172 171 169 167 163 162 158 156 156 155 156 154 151 149 144 142 139 135 131 125 121 118 112 105 101 97 93 92 88 83 79 73
184 186 191 190 188 187 186 185 185 184 183 182 181 181 180 180 180 179 177 176 175 173 172 170 166 164 161 159 160 158 159 158 156 154 149 147 145 139 135 130 126 122 117 112 107 101 96 92 86 80 73 68
184 186 189 189 188 188 187 186 185 185 184 182 182 182 182 182 182 181 180 178 178 176 174 173 170 166 164 163 164 162 162 162 161 158 153 150 149 143 138 134 131 127 123 119 115 110 104 94 83 72 64 58
182 183 186 186 187 187 187 186 185 185 184 183 183 183 184 183 183 183 182 180 180 180 177 176 173 169 168 168 168 167 165 164 164 162 156 152 151 148 143 139 136 132 129 126 123 119 112 99 82 65 53 47
181 181 182 183 185 186 185 186 186 186 185 184 184 185 186 185 185 185 184 182 181 182 180 178 176 173 171 171 171 170 169 167 165 164 161 155 154 153 149 145 141 139 137 134 131 128 119 105 86 63 42 32
179 178 179 179 180 182 184 185 185 186 186 186 186 187 188 188 187 187 187 184 183 185 183 180 178 176 174 174 174 174 172 170 167 165 165 161 158 157 155 152 149 147 146 144 147 148 141 120 92 58 27 12
177 175 175 177 178 180 182 184 184 186 187 187 188 189 189 190 189 189 188 186 185 187 186 182 180 178 176 176 177 177 175 172 170 168 167 166 163 162 162 161 160 160 160 166 174 183 195 187 209 320 353 343
179 177 177 178 179 181 182 183 184 184 186 188 189 190 191 191 191 191 190 188 187 188 188 185 182 180 178 177 178 179 177 174 172 171 171 169 167 168 171 173 177 182 182 187 197 206 219 234 241 251 305 314
183 184 186 185 184 184 182 184 186 185 186 188 189 191 192 192 192 192 191 190 189 189 190 187 184 183 180 179 179 179 178 177 175 173 174 174 171 172 179 186 189 192 189 189 199 194 189 262 277 252 270 289
186 187 190 191 189 185 182 184 187 187 187 188 189 191 192 193 193 193 193 191 190 191 191 190 188 184 183 181 181 182 180 178 177 176 176 178 179 177 176 179 183 189 188 182 182 172 168 285 350 282 263 278
187 185 186 190 189 185 183 183 185 185 186 188 190 190 192 194 194 194 194 192 192 192 192 192 190 187 185 183 183 185 184 181 180 180 180 182 186 184 173 162 155 176 188 185 176 158 120 76 62 304 272 308
187 184 182 180 177 179 179 178 180 182 183 187 190 191 192 194 194 195 195 194 193 193 193 192 191 189 187 186 186 188 188 186 184 184 184 182 183 184 177 165 147 143 167 184 193 196 171 116 108 230 256 330
189 187 185 182 178 179 178 177 183 187 187 188 190 192 192 193 195 195 195 196 195 195 195 193 192 191 189 189 188 189 191 190 187 184 182 180 178 180 180 174 157 139 136 150 174 192 188 168 161 185 191 16
192 191 190 191 191 189 187 186 188 191 191 190 191 192 192 193 194 196 197 197 196 196 196 195 193 192 191 191 190 191 192 191 188 183 178 176 178 178 178 178 166 151 142 135 134 146 152 143 126 124 142 147